Voltar ao catálogo

STARLINK-32149

AtivoComunicaçõesVLEO
NORAD 60292·PAYLOAD·🇺🇸 United States

Lançado Jul 28, 2024 de Cape Canaveral Space Force Station

Loading…

Próximas Passagens (próximas 24 horas)

TLE

AtualizadoSource: CelesTrak SupGP

Época: Sep 14, 2026, 22:22 UTC

1 60292C 24132Q   26257.93243056  .00035872  00000+0  11535-2 0  2573
2 60292  53.1574 252.3589 0001368  96.1928 106.4847 15.31685754    19

Acompanhe STARLINK-32149 em tempo real com AllMySat

Download on the App Store